Location: Paderno d�Adda
(45.6667°N, 9.4333°E)
Time: 09:41:32
(UTC+00:00)

ATLAS 3B R/B - Visible Passes

Search period start: 20 June 2021 00:00
Search period end: 30 June 2021 00:00
Orbit: 1006 x 1189 km, 63.8° (Epoch: 17 June)

Date Brightness Start Highest point End Pass type
(mag) Time Alt. Az. Time Alt. Az. Time Alt. Az.
20 Jun 5.2 00:33:21 10° NW 00:37:44 18° N 00:42:14 10° NNE visible
20 Jun 5.3 02:26:07 10° NNW 02:31:14 21° NNE 02:36:29 10° ENE visible
20 Jun 3.0 20:00:35 10° S 20:06:36 41° ESE 20:12:49 10° NE visible
20 Jun 3.6 21:50:52 10° WSW 21:57:12 49° NW 22:03:47 10° NNE visible
20 Jun 5.2 23:44:51 10° WNW 23:49:39 20° NNW 23:54:34 10° NNE visible
21 Jun 5.3 01:38:34 10° NNW 01:43:10 18° NNE 01:47:52 10° NE visible
21 Jun 2.9 21:03:13 10° SW 21:09:45 72° NW 21:16:33 10° NE visible
21 Jun 4.9 22:56:21 10° WNW 23:01:39 24° NNW 23:07:08 10° NNE visible
22 Jun 5.4 00:50:45 10° NW 00:55:01 17° N 00:59:24 10° NE visible
22 Jun 5.1 02:42:19 10° NNW 02:48:13 28° NNE 02:54:19 10° E visible
22 Jun 2.6 20:15:58 10° SSW 20:22:28 76° SE 20:29:13 10° NE visible
22 Jun 4.5 22:07:59 10° W 22:13:49 32° NNW 22:19:51 10° NNE visible
23 Jun 5.4 00:02:33 10° NW 00:06:51 17° N 00:11:15 10° NE visible
23 Jun 5.3 01:55:01 10° NNW 02:00:19 23° NNE 02:05:46 10° ENE visible
23 Jun 3.9 21:19:54 10° WSW 21:26:08 43° NW 21:32:37 10° NNE visible
23 Jun 5.3 23:14:06 10° WNW 23:18:44 19° NNW 23:23:29 10° NNE visible
24 Jun 5.5 01:07:32 10° NNW 01:12:16 19° NNE 01:17:07 10° ENE visible
24 Jun 3.2 20:32:08 10° SW 20:38:38 63° NW 20:45:23 10° NE visible
24 Jun 5.1 22:25:34 10° WNW 22:30:42 23° NNW 22:36:01 10° NNE visible
25 Jun 5.5 00:19:48 10° NW 00:24:08 17° N 00:28:35 10° NE visible
25 Jun 4.9 02:11:08 10° NNW 02:17:14 31° NNE 02:23:32 10° E visible
25 Jun 2.7 19:44:44 10° SSW 19:51:18 87° SE 19:58:06 10° NE visible
25 Jun 4.7 21:37:09 10° W 21:42:49 29° NNW 21:48:41 10° NNE visible
25 Jun 5.6 23:31:43 10° NW 23:35:58 17° N 23:40:21 10° NE visible
26 Jun 5.2 01:23:52 10° NNW 01:29:22 24° NNE 01:35:02 10° ENE visible
26 Jun 4.2 20:48:58 10° WSW 20:55:05 39° NW 21:01:27 10° NNE visible
26 Jun 5.5 22:43:20 10° NW 22:47:50 18° NNW 22:52:28 10° NNE visible
27 Jun 5.4 00:36:28 10° NNW 00:41:22 20° NNE 00:46:24 10° ENE visible
27 Jun 4.1 02:27:10 10° NNW 02:33:54 46° NE 02:40:53 10° ESE visible
27 Jun 3.5 20:01:05 10° WSW 20:07:31 56° NW 20:14:13 10° NNE visible
27 Jun 5.3 21:54:48 10° WNW 21:59:47 21° NNW 22:04:54 10° NNE visible
27 Jun 5.5 23:48:49 10° NNW 23:53:15 18° N 23:57:48 10° NE visible
28 Jun 4.6 01:39:57 10° NNW 01:46:14 34° NE 01:52:43 10° E visible
28 Jun 4.9 21:06:20 10° W 21:11:50 27° NNW 21:17:32 10° NNE visible
28 Jun 5.6 23:00:51 10° NW 23:05:06 17° N 23:09:27 10° NE visible
29 Jun 5.0 00:52:43 10° NNW 00:58:25 26° NNE 01:04:17 10° E visible
29 Jun 3.2 02:43:12 10° NW 02:50:17 74° NE 02:57:38 10° SE visible
29 Jun 4.5 20:18:03 10° W 20:24:03 35° NW 20:30:17 10° NNE visible
29 Jun 5.5 22:12:32 10° NW 22:16:57 18° N 22:21:27 10° NNE visible
